Location: Unnamed
(48.6007°N, 2.4808°E)
Time: 18:45:38
(UTC+02:00)

DX 1 - Pass Details

Date: 11 April 2023
Orbit: 615 x 625 km, 98.4° (Epoch: 04 June)

Event Time Altitude Azimuth Distance (km) Brightness Sun altitude
Rises 00:29:05 0° 13° (NNE) 2,900 ? -30.5°
Reaches altitude 10° 00:31:16 10° 12° (NNE) 1,991 ? -30.6°
Enters shadow 00:33:33 31° 7° (N) 1,097 ? -30.8°
